Regional Weather Roundup
Issued by NWS

Home | Current Version | Previous Version | Graphics & Text | Print | Product List | Glossary On
Versions: 1 2 3 4 5 6 7 8 9 10 11 12 13 14 15 16 17 18 19 20 21 22 23 24 25 26 27 28 29 30 31 32 33 34 35 36 37 38 39 40 41 42 43 44 45 46 47 48 49 50
870
ASUS43 KLSX 231607
RWRMO

WEATHER SUMMARY FOR MISSOURI
NATIONAL WEATHER SERVICE SPRINGFIELD MO
1100 AM CDT SUN APR 23 2017

NOTE: "FAIR" INDICATES FEW OR NO CLOUDS BELOW 12,000 FEET WITH NO
       SIGNIFICANT WEATHER AND/OR OBSTRUCTIONS TO VISIBILITY.
       CURRENT SKY AND/OR WEATHER CONDITIONS ARE NOT AVAILABLE FOR
       CHILLICOTHE AND FARMINGTON.

MOZ001>031-035>038-043-044-053-054-231700-
...NORTHERN AND WESTERN MISSOURI...

CITY           SKY/WX    TMP DP  RH WIND       PRES   REMARKS
KANSAS CTY INT MOSUNNY   62  30  29 NE6       30.18S
KANSAS C DTWN  SUNNY     62  35  36 VRB5      30.17S
LEE`S SUMMIT   SUNNY     61  34  36 N6        30.18S
ST JOSEPH      SUNNY     62  33  33 S6        30.17F
CHILLICOTHE      N/A     63  32  31 SE3       30.17F
KIRKSVILLE     SUNNY     63  33  32 NE6       30.15F

$$
MOZ066>068-077>081-088>096-101>105-231700-
...SOUTHWEST MISSOURI...

CITY           SKY/WX    TMP DP  RH WIND       PRES   REMARKS
SPRINGFIELD    SUNNY     59  38  45 NE12      30.13R
JOPLIN         SUNNY     59  39  47 NE9       30.15F
BRANSON        SUNNY     55  39  54 N8        30.12S

$$
MOZ032>034-039>042-045>050-055>058-069>072-231700-
...CENTRAL MISSOURI...

CITY           SKY/WX    TMP DP  RH WIND       PRES   REMARKS
COLUMBIA       SUNNY     62  34  35 NE12      30.14S
JEFFERSON CITY SUNNY     63  30  28 N10       30.14S
ROLLA          SUNNY     59  36  42 NE10      30.10F
WHITEMAN AFB   SUNNY     61  32  33 NE9       30.15S
OSAGE BEACH    SUNNY     59  34  39 NE14      30.14F

$$
MOZ051-052-059>065-231700-
...EAST CENTRAL MISSOURI...

CITY           SKY/WX    TMP DP  RH WIND       PRES   REMARKS
ST LOUIS INTL  SUNNY     63  34  33 NE10      30.11S
SPIRIT OF STL  SUNNY     62  35  36 NE15      30.10F
ST CHARLES     SUNNY     63  35  35 N15G24    30.11F

$$
MOZ072>076-082>087-097>100-106>115-231700-
...SOUTH CENTRAL AND SOUTHEAST MISSOURI...

CITY           SKY/WX    TMP DP  RH WIND       PRES   REMARKS
CAPE GIRARDEAU SUNNY     57  42  57 NE16G28   30.00F
FARMINGTON     SUNNY     57  34  41 NE14G24   30.08S
POPLAR BLUFF   MOSUNNY   59  42  53 N17       30.01S
WEST PLAINS    SUNNY     60  39  45 N17G23    30.08S

$$




USA.gov is the U.S. government's official web portal to all federal, state and local government web resources and services.